Flag for Denmark Weather past 2 weeks in Esbjerg, Denmark

Now
61 °F

Sprinkles. Partly sunny.


Feels Like: 61 °F
Forecast: 58 / 65 °F
Wind: 8 mph from Southwest

Location: Esbjerg Airport

Current Time: Aug 27, 2015 at 9:24:37 PM

Latest Report: Aug 27, 2015 at 8:50 PM


Visibility: N/A

Pressure: 29.71 "Hg

Humidity: 88%

Dew point: 57 °F

Location of EsbjergLocation

Historic Weather in Esbjerg — Graph

°F

Esbjerg temperature yesterday

Maximum temperature yesterday: 68 °F (at 5:50 PM)
Minimum temperature yesterday: 57 °F (at 5:20 AM)
Average temperature yesterday: 64 °F

Past Weeks' High & Low Weather Summary

 TemperatureHumidityPressure
High79 °F (Aug 14, 3:20 PM)100% (Aug 13, 2:20 AM)30.30 "Hg (Aug 13, 2:20 AM)
Low45 °F (Aug 13, 5:20 AM)39% (Aug 22, 12:50 PM)29.56 "Hg (Aug 24, 11:20 PM)
Average65 °F79%29.96 "Hg
* Reported Aug 12 7:20 PM — Aug 27 7:50 PM, Esbjerg, Weather by CustomWeather, © 2015

Note: Actual official high and low records may vary slightly from our data, if they occured in-between our weather recording intervals... More about our weather records

Advertising

Esbjerg weather history for previous 24 hours

 ConditionsComfort  
Time TempWeatherWind HumidityBarometerVisibility
7:50 PM
Thu, Aug 27
61 °FBroken clouds.10 mph88%29.71 "HgN/A
7:20 PM61 °FBroken clouds.8 mph88%29.71 "HgN/A
6:50 PM59 °FRain. Partly sunny.5 mph88%29.71 "HgN/A
6:20 PM57 °FHeavy rain. Partly sunny.8 mph88%29.71 "Hg3 mi
5:50 PM63 °FLight rain. Partly sunny.9 mph88%29.71 "HgN/A
5:20 PM61 °FPartly sunny.10 mph88%29.71 "HgN/A
4:50 PM63 °FBroken clouds.12 mph83%29.71 "HgN/A
4:20 PM64 °FBroken clouds.12 mph78%29.71 "HgN/A
3:50 PM64 °FPartly sunny.15 mph73%29.71 "HgN/A
3:20 PM64 °FPartly sunny.14 mph78%29.68 "HgN/A
2:50 PM66 °FPartly sunny.16 mph73%29.68 "HgN/A
2:20 PM64 °FScattered clouds.15 mph78%29.68 "HgN/A
1:50 PM64 °FPartly sunny.15 mph78%29.68 "HgN/A
1:20 PM64 °FPartly sunny.16 mph83%29.68 "HgN/A
12:50 PM64 °FPartly sunny.15 mph83%29.68 "HgN/A
12:20 PM64 °FBroken clouds.14 mph83%29.65 "HgN/A
11:50 AM64 °FPartly sunny.17 mph83%29.65 "HgN/A
11:20 AM66 °FPartly sunny.18 mph78%29.65 "HgN/A
10:50 AM66 °FPartly sunny.17 mph83%29.65 "HgN/A
10:20 AM66 °FPartly sunny.15 mph83%29.62 "HgN/A
9:50 AM64 °FSprinkles. Broken clouds.12 mph83%29.62 "HgN/A
9:20 AM64 °FPartly sunny.12 mph88%29.62 "HgN/A
8:50 AM64 °FPartly sunny.10 mph88%29.62 "HgN/A
8:20 AM64 °FPartly sunny.9 mph88%29.62 "HgN/A
7:50 AM64 °FPartly sunny.8 mph94%29.62 "HgN/A
7:20 AM64 °FBroken clouds.7 mph94%29.62 "HgN/A
6:50 AM63 °FPassing clouds.8 mph94%29.62 "HgN/A
6:20 AM63 °FPassing clouds.9 mph100%29.62 "HgN/A
5:50 AM63 °FLow clouds.6 mph94%29.62 "HgN/A
5:20 AM63 °FPassing clouds.6 mph94%29.62 "HgN/A
4:50 AM63 °FPassing clouds.7 mph94%29.62 "HgN/A
4:20 AM63 °FPassing clouds.8 mph94%29.65 "HgN/A
3:50 AM63 °FPassing clouds.6 mph94%29.65 "HgN/A
3:20 AM61 °FLight rain. Passing clouds.7 mph100%29.65 "HgN/A
2:50 AM61 °FLight rain. Partly cloudy.6 mph100%29.68 "HgN/A
2:20 AM61 °FLight rain. Passing clouds.7 mph100%29.68 "HgN/A
1:50 AM61 °FRain. Partly cloudy.7 mph100%29.71 "Hg6 mi
1:20 AM61 °FRain. Passing clouds.10 mph100%29.71 "Hg4 mi
12:50 AM61 °FLight rain. Passing clouds.7 mph94%29.71 "HgN/A
11:50 PM
Wed, Aug 26
66 °FSprinkles. Passing clouds.8 mph88%29.65 "HgN/A
11:20 PM64 °FSprinkles. Passing clouds.7 mph94%29.68 "HgN/A
10:50 PM68 °FPassing clouds.10 mph83%29.71 "HgN/A
10:20 PM68 °FPassing clouds.9 mph83%29.71 "HgN/A
9:50 PM68 °FPartly cloudy.9 mph83%29.71 "HgN/A
9:20 PM68 °FPartly sunny.8 mph83%29.74 "HgN/A
Weather by CustomWeather, © 2015

See weather overviewHow to use our weather pages